When you browse on this site, cookies collect data to enhance your experience and personalize the content and advertising you see.
Visit our Privacy Policy to learn more. By continuing to use the site, you agree to this use of cookies and data.

Stündliche Wetter Bolshie Korchicy

Heute, 26 September, Samstag

Zeit Temperatur Niederschläge Wind Luftdruck Luftfeuchtigkeit
00:00 +18°C° 0 mm 4 m/S 738 mmHg 71%
01:00 +18°C° 0 mm 4 m/S 738 mmHg 73%
02:00 +17°C° 0 mm 5 m/S 738 mmHg 69%
03:00 +17°C° 0 mm 5 m/S 737 mmHg 70%
04:00 +17°C° 0 mm 5 m/S 737 mmHg 71%
05:00 +17°C° 0 mm 5 m/S 737 mmHg 71%
06:00 +17°C° 0 mm 6 m/S 737 mmHg 71%
07:00 +18°C° 0 mm 7 m/S 737 mmHg 71%
08:00 +18°C° 0 mm 7 m/S 737 mmHg 72%
09:00 +21°C° 0 mm 8 m/S 737 mmHg 65%
10:00 +22°C° 0 mm 9 m/S 737 mmHg 59%
11:00 +24°C° 0 mm 10 m/S 737 mmHg 52%
12:00 +24°C° 0 mm 10 m/S 737 mmHg 50%
13:00 +26°C° 0 mm 9 m/S 736 mmHg 48%
14:00 +26°C° 0 mm 9 m/S 736 mmHg 46%
15:00 +26°C° 0 mm 8 m/S 736 mmHg 49%
16:00 +24°C° 0 mm 7 m/S 736 mmHg 53%
17:00 +23°C° 0 mm 6 m/S 736 mmHg 56%
18:00 +23°C° 0 mm 6 m/S 736 mmHg 56%
19:00 +23°C° 0 mm 7 m/S 736 mmHg 55%
20:00 +23°C° 0 mm 8 m/S 736 mmHg 55%
21:00 +22°C° 0 mm 8 m/S 736 mmHg 56%
22:00 +22°C° 0 mm 7 m/S 736 mmHg 57%
23:00 +21°C° 0 mm 7 m/S 736 mmHg 58%

Morgen, 27 September, Sonntag

Zeit Temperatur Niederschläge Wind Luftdruck Luftfeuchtigkeit
00:00 +21°C° 0 mm 7 m/S 736 mmHg 60%
01:00 +20°C° 0 mm 7 m/S 736 mmHg 61%
02:00 +20°C° 0 mm 7 m/S 736 mmHg 63%
03:00 +20°C° 0 mm 8 m/S 735 mmHg 64%
04:00 +20°C° 0 mm 8 m/S 735 mmHg 65%
05:00 +20°C° 0 mm 8 m/S 735 mmHg 66%
06:00 +19°C° 0.1 mm 9 m/S 735 mmHg 69%
07:00 +18°C° 0.1 mm 9 m/S 735 mmHg 72%
08:00 +18°C° 0.1 mm 9 m/S 735 mmHg 76%
09:00 +18°C° 0.1 mm 9 m/S 735 mmHg 74%
10:00 +19°C° 0.1 mm 9 m/S 736 mmHg 72%
11:00 +19°C° 0.1 mm 9 m/S 736 mmHg 70%
12:00 +17°C° 0.7 mm 8 m/S 737 mmHg 76%
13:00 +15°C° 0.7 mm 7 m/S 738 mmHg 81%
14:00 +13°C° 0.7 mm 6 m/S 738 mmHg 86%
15:00 +13°C° 0.2 mm 6 m/S 739 mmHg 85%
16:00 +11°C° 0.2 mm 6 m/S 740 mmHg 83%
17:00 +10°C° 0.2 mm 6 m/S 741 mmHg 82%
18:00 +10°C° 0 mm 5 m/S 742 mmHg 81%
19:00 +10°C° 0 mm 5 m/S 743 mmHg 81%
20:00 +11°C° 0 mm 4 m/S 743 mmHg 80%
21:00 +11°C° 0 mm 4 m/S 744 mmHg 80%
22:00 +11°C° 0 mm 4 m/S 745 mmHg 81%
23:00 +11°C° 0 mm 4 m/S 746 mmHg 81%

übermorgen, 28 September, Montag

Zeit Temperatur Niederschläge Wind Luftdruck Luftfeuchtigkeit
00:00 +10°C° 0 mm 4 m/S 746 mmHg 84%
01:00 +9°C° 0 mm 3 m/S 746 mmHg 88%
02:00 +9°C° 0 mm 3 m/S 747 mmHg 92%
03:00 +8°C° 0 mm 3 m/S 747 mmHg 92%
04:00 +8°C° 0 mm 3 m/S 747 mmHg 92%
05:00 +8°C° 0 mm 3 m/S 748 mmHg 91%
06:00 +9°C° 0 mm 3 m/S 748 mmHg 87%
07:00 +8°C° 0 mm 4 m/S 748 mmHg 83%
08:00 +10°C° 0 mm 4 m/S 749 mmHg 79%
09:00 +12°C° 0 mm 4 m/S 749 mmHg 71%
10:00 +14°C° 0 mm 4 m/S 749 mmHg 62%
11:00 +15°C° 0 mm 4 m/S 749 mmHg 54%
12:00 +17°C° 0 mm 4 m/S 749 mmHg 51%
13:00 +18°C° 0 mm 4 m/S 749 mmHg 49%
14:00 +19°C° 0 mm 4 m/S 748 mmHg 46%
15:00 +18°C° 0 mm 4 m/S 748 mmHg 50%
16:00 +18°C° 0 mm 3 m/S 748 mmHg 54%
17:00 +18°C° 0 mm 3 m/S 748 mmHg 58%
18:00 +17°C° 0 mm 3 m/S 748 mmHg 63%
19:00 +16°C° 0 mm 3 m/S 748 mmHg 68%
20:00 +14°C° 0 mm 4 m/S 748 mmHg 72%
21:00 +13°C° 0 mm 4 m/S 747 mmHg 73%
22:00 +13°C° 0 mm 4 m/S 747 mmHg 75%
23:00 +13°C° 0 mm 4 m/S 747 mmHg 76%

29 September, Dienstag

Zeit Temperatur Niederschläge Wind Luftdruck Luftfeuchtigkeit
00:00 +13°C° 0 mm 4 m/S 747 mmHg 74%
01:00 +14°C° 0 mm 4 m/S 747 mmHg 73%
02:00 +14°C° 0 mm 3 m/S 746 mmHg 71%
03:00 +13°C° 0 mm 3 m/S 746 mmHg 73%
04:00 +13°C° 0 mm 3 m/S 746 mmHg 75%
05:00 +12°C° 0 mm 3 m/S 746 mmHg 77%
06:00 +12°C° 0.3 mm 3 m/S 746 mmHg 79%
07:00 +12°C° 0.3 mm 3 m/S 746 mmHg 81%
08:00 +12°C° 0.3 mm 3 m/S 746 mmHg 83%
09:00 +13°C° 0.6 mm 3 m/S 746 mmHg 84%
10:00 +14°C° 0.6 mm 4 m/S 746 mmHg 84%
11:00 +14°C° 0.6 mm 4 m/S 746 mmHg 84%
12:00 +14°C° 0.1 mm 4 m/S 746 mmHg 84%
13:00 +14°C° 0.1 mm 4 m/S 746 mmHg 84%
14:00 +14°C° 0.1 mm 4 m/S 746 mmHg 83%
15:00 +14°C° 0 mm 3 m/S 746 mmHg 83%
16:00 +15°C° 0 mm 2 m/S 746 mmHg 83%
17:00 +15°C° 0 mm 2 m/S 746 mmHg 82%
18:00 +15°C° 0 mm 2 m/S 746 mmHg 84%
19:00 +14°C° 0 mm 2 m/S 746 mmHg 85%
20:00 +13°C° 0 mm 2 m/S 747 mmHg 87%
21:00 +13°C° 0 mm 1 m/S 746 mmHg 87%
22:00 +13°C° 0 mm 1 m/S 746 mmHg 88%
23:00 +13°C° 0 mm 1 m/S 746 mmHg 88%

30 September, Mittwoch

Zeit Temperatur Niederschläge Wind Luftdruck Luftfeuchtigkeit
00:00 +13°C° 0.1 mm 1 m/S 746 mmHg 89%
01:00 +13°C° 0.1 mm 2 m/S 745 mmHg 89%
02:00 +13°C° 0.1 mm 2 m/S 745 mmHg 90%
03:00 +13°C° 0.2 mm 2 m/S 745 mmHg 90%
04:00 +12°C° 0.2 mm 3 m/S 745 mmHg 90%
05:00 +12°C° 0.2 mm 3 m/S 744 mmHg 90%
06:00 +12°C° 0 mm 3 m/S 744 mmHg 90%
07:00 +12°C° 0 mm 3 m/S 744 mmHg 90%
08:00 +13°C° 0 mm 4 m/S 744 mmHg 90%
09:00 +13°C° 0 mm 4 m/S 744 mmHg 87%
10:00 +14°C° 0 mm 4 m/S 744 mmHg 84%
11:00 +14°C° 0 mm 4 m/S 744 mmHg 81%
12:00 +14°C° 0.4 mm 4 m/S 743 mmHg 84%
13:00 +13°C° 0.4 mm 4 m/S 743 mmHg 87%
14:00 +12°C° 0.4 mm 4 m/S 743 mmHg 90%
15:00 +12°C° 0.8 mm 4 m/S 743 mmHg 90%
16:00 +12°C° 0.8 mm 4 m/S 742 mmHg 91%
17:00 +12°C° 0.8 mm 4 m/S 742 mmHg 92%
18:00 +12°C° 0.3 mm 4 m/S 742 mmHg 92%
19:00 +12°C° 0.3 mm 4 m/S 742 mmHg 92%
20:00 +12°C° 0.3 mm 4 m/S 742 mmHg 93%
21:00 +12°C° 0.4 mm 4 m/S 742 mmHg 93%
22:00 +12°C° 0.4 mm 4 m/S 742 mmHg 94%
23:00 +12°C° 0.4 mm 4 m/S 741 mmHg 94%

1 Oktober, Donnerstag

Zeit Temperatur Niederschläge Wind Luftdruck Luftfeuchtigkeit
00:00 +12°C° 0.1 mm 4 m/S 741 mmHg 94%
01:00 +12°C° 0.1 mm 4 m/S 741 mmHg 94%
02:00 +12°C° 0.1 mm 4 m/S 741 mmHg 94%
03:00 +12°C° 0 mm 4 m/S 741 mmHg 94%
04:00 +12°C° 0 mm 4 m/S 740 mmHg 94%
05:00 +12°C° 0 mm 4 m/S 740 mmHg 94%
06:00 +12°C° 0 mm 4 m/S 740 mmHg 93%
07:00 +12°C° 0 mm 4 m/S 740 mmHg 93%
08:00 +12°C° 0 mm 4 m/S 740 mmHg 92%
09:00 +13°C° 0 mm 4 m/S 740 mmHg 91%
10:00 +13°C° 0 mm 3 m/S 740 mmHg 89%
11:00 +13°C° 0 mm 3 m/S 740 mmHg 87%
12:00 +14°C° 0.1 mm 3 m/S 739 mmHg 86%
13:00 +14°C° 0.1 mm 3 m/S 739 mmHg 85%
14:00 +14°C° 0.1 mm 3 m/S 739 mmHg 84%
15:00 +14°C° 0.1 mm 3 m/S 739 mmHg 86%
16:00 +14°C° 0.1 mm 3 m/S 739 mmHg 88%
17:00 +13°C° 0.1 mm 3 m/S 739 mmHg 90%
18:00 +14°C° 0 mm 2 m/S 739 mmHg 92%
19:00 +13°C° 0 mm 2 m/S 739 mmHg 94%
20:00 +13°C° 0 mm 2 m/S 739 mmHg 95%
21:00 +13°C° 0 mm 2 m/S 739 mmHg 96%
22:00 +13°C° 0 mm 2 m/S 740 mmHg 96%
23:00 +12°C° 0 mm 2 m/S 740 mmHg 96%
Mehr zeigen